作者Axwell (Axwell)
看板Baseball
標題[分享] 今日大谷翔平
時間Sat Oct 25 11:27:25 2025
https://i.imgur.com/vvoWpIk.jpeg
┌─────────┬─────┬─────┬─────┐
│ 滿壘打不出來翔平 │初速(mph) │ 距離(ft) │仰角(deg) │
├─────┬───┼─────┼─────┼─────┤
│ 第一打席 │ K │ │ │ │
├─────┼───┼─────┼─────┼─────┤
│ 第二打席 │滿壘GO│ 77.6 │ 12 │ -8 │
├─────┼───┼─────┼─────┼─────┤
│ 第三打席 │ K │ │ │ │
├─────┼───┼─────┼─────┼─────┤
│ 第四打席 │ HR │ 103.7 │ 357 │ 41 │
├─────┼───┼─────┼─────┼─────┤
│ 第五打席 │ BB │ │ │ │
├──┬─┬┴┬─┬┴─┬─┬─┼─┬─┬─┼─┬───┤
│ AVG│AB│ R│ H│ RBI│2B│3B│HR│BB│ K│SB│ OPS │
├──┼─┼─┼─┼──┼─┼─┼─┼─┼─┼─┼───┤
│.222│ 4│ 1│ 1│ 2 │ 0│ 0│ 1│ 1│ 2│ 0│1.007 │
└──┴─┴─┴─┴──┴─┴─┴─┴─┴─┴─┴───┘
第二打席滿壘兩出局打出滾地出局
第四打席2:11落後局面打出兩分砲
第五打席現場藍鳥球迷齊喊"we don't need you"
https://i.imgur.com/WRXYTrq.jpeg
該打席選到保送,差點被牽制出局XDDDD
終場道奇4:11敗給北方王者
WS 藍鳥1:0道奇
https://i.imgur.com/JpKvr5s.jpeg
https://i.imgur.com/mT0RJ0v.jpeg
--
※ 發信站: 批踢踢實業坊(ptt.cc), 來自: 59.125.131.163 (臺灣)
※ 文章網址: https://webptt.com/m.aspx?n=bbs/Baseball/M.1761362847.A.666.html
1F:→ i945566: 好快10/25 11:27
2F:推 Vincent8026: =皿=10/25 11:27
3F:推 carlchang092: 明天給學弟一點支援吧10/25 11:27
4F:推 L1ON: 可憐10/25 11:27
5F:→ yeeNeko: 還行啦10/25 11:27
6F:→ lafeelbarth: 垃圾時間10/25 11:27
7F:推 t81511270: 好冷阿 翔平10/25 11:27
8F:推 cl3bp6: 快10/25 11:28
9F:推 wwey2000j: 刷子10/25 11:28
10F:→ CMPunk: 垃圾時間刷數據 可憐哪10/25 11:28
11F:推 RicFlair: 休到笑死10/25 11:28
12F:推 sally09287: 超快10/25 11:28
13F:推 polanco: 笑死 藍鳥迷好有梗10/25 11:28
14F:推 JWalk77: 垃圾時間10/25 11:28
15F:→ jiaxie: 笑死無關緊要全壘打10/25 11:28
16F:推 lsj049: 刷10/25 11:28
17F:→ a7696405: 除了第一打席,其實還行10/25 11:28
18F:推 f66043284: 又強又爛10/25 11:28
19F:→ misaka10032: 學到撈哥的精髓10/25 11:28
20F:推 howard1997: 看板好好笑10/25 11:28
21F:→ TokyoHard: 滿壘打個兩分大概率後面也是炸掉,東賣10/25 11:28
22F:推 k960608: 今天打擊成績還行 但是... 10/25 11:28
23F:推 johnwu: MLB姆斯?10/25 11:28
25F:推 eason1065: 藍鳥敗人品 明天希望能扳平10/25 11:28
26F:推 sunsun881207: NOTANI10/25 11:28
27F:→ kauw: Jeter:goat不能只看一場10/25 11:28
28F:推 sunnyisgood: 滿壘不轟10/25 11:28
29F:推 amen123: 好強 想必贏了10/25 11:28
30F:推 u9914014: 777710/25 11:28
31F:推 wl00533180: 牛棚這麼爛 怎樣都沒用啦10/25 11:28
32F:推 okichan: 還好有刷了一支10/25 11:28
33F:推 Seifer601: 數據刷起來10/25 11:28
34F:→ hydra7: 有一K被主審黑的10/25 11:29
35F:→ amsmsk: 姆斯 THE刷10/25 11:29
※ 編輯: Axwell (59.125.131.163 臺灣), 10/25/2025 11:29:19
36F:→ JesterCheng: 不差 只是比分近一點應該還是沒得打10/25 11:29
37F:推 JoeGibsonJr: notani ohcanada 蠻好笑的10/25 11:29
38F:→ zxcghjko: 無關緊要的一轟10/25 11:29
39F:推 annboy: 刷10/25 11:29
40F:推 lyt5566: 笑死10/25 11:29
41F:推 william80730: 主審贊助1K10/25 11:29
42F:推 dinosd2: 這看起來至少手感還在啊,最後一打席投那麼閃不給打10/25 11:29
43F:推 henry1915: 刷 10/25 11:29
44F:推 a12300: 明天多幫幫學弟吧10/25 11:29
45F:推 norel147: 想贏球 有問過牛棚嗎10/25 11:29
46F:推 delhuang: 今天打兩隻滿貫砲也沒用 投手太爛了10/25 11:29
47F:推 andykao082: 太快了吧,強10/25 11:29
48F:→ leotompp: 才第七年就姆斯化 可憐R10/25 11:29
49F:推 helacell: 明天繼續加油!!!10/25 11:29
50F:推 a7706888: 今天wpa一定扣10/25 11:29
51F:→ yangtsur: 第二打席邊線可惜了 第三打席被主審黑掉10/25 11:29
黑在哪
https://i.imgur.com/tRFi6dW.jpeg
52F:噓 terminator3: 滿壘滾地球 輸定了全壘打10/25 11:29
53F:→ k33536: 殺人誅心 贏局還要贏話10/25 11:30
54F:推 SphereDavid: 刷數據10/25 11:30
55F:推 askdrlin: No湯膩 蠻好笑的10/25 11:30
56F:→ kenkenken31: 除了第四打席都非常小心,道奇要讓大谷暢打還要簽大咖10/25 11:30
57F:推 ScotchWhisky: 笑死 每次上來都開轟的話還是輸一分10/25 11:30
58F:→ yankees733: 滿壘不打 落後9分才打10/25 11:30
59F:推 sixsix666: 想必是戰犯10/25 11:30
60F:→ kenkenken31: 木屐和自由老實說吧,已經不是可以保護大谷的等級了10/25 11:30
61F:→ WYchuang: 等等 說好的Nice加拿大人勒10/25 11:30
※ 編輯: Axwell (60.248.240.223 臺灣), 10/25/2025 11:31:41
62F:推 JLai1716: 牛棚提前爆炸,太慢了 10/25 11:31
63F:→ usoko: 刷數據躺平 10/25 11:31
64F:推 Krishna: We don't need you 10/25 11:31
65F:噓 ejonlj: 以前天使 滿壘還會乖乖求安打 來道奇一天到晚出局 10/25 11:31
66F:推 wuuman: 去看Box盒 大家幹嘛嘴打最好的 10/25 11:31
67F:噓 ENOZI: 台灣溫良恭儉讓迷又敗人品啦 說說看這次觸碰到您哪跟逆鱗 10/25 11:31
68F:→ ENOZI: 了 10/25 11:31
69F:→ kenkenken31: 不然我寧可保送50轟重砲,你後面的前MVP還真得更軟柿 10/25 11:32
70F:推 wwey2000j: 壓線三振 主審明察秋毫哪裡黑了? 10/25 11:32
71F:→ howard1997: 舉看板很溫和啊 難道要丟選手垃圾或啤酒嗎 10/25 11:32
72F:推 s1d87: 翔必,笑死 10/25 11:32
73F:→ f99999993: 刷 10/25 11:33
74F:推 belucky: 還是神人 這場不是你的鍋 10/25 11:33
75F:推 preattyall: 牛棚瞬間丟9分,結果扛一半分數的是戰犯,神邏輯 10/25 11:33
76F:推 mouz: 滿壘時出局,垃圾時間刷分 10/25 11:33
77F:推 Raminrez: 轉播的圖比較準,根本差很多 10/25 11:33
78F:推 a7706888: 看wpa就知道 10/25 11:33
79F:→ qazse000: 這系列賽大谷投打都要發揮得更好 不然難贏了 10/25 11:33
80F:推 lightjayjw: TBJ球迷有自信,we don't need you 10/25 11:34
81F:推 ScotchWhisky: 算錯 每打席都開轟的話是追平耶 戰犯無誤 10/25 11:34
82F:推 oas: 大哥二哥打擊也是要一起負責的..................... 10/25 11:34
83F:推 Romulus: NoTani XD 10/25 11:34
84F:推 cbpa: 這分差,滿壘滿貫也沒用,牛棚這樣道奇涼了 10/25 11:34
85F:推 yangmin1028: 刷到了 賺 10/25 11:35
86F:→ gadgets: 怎麼有人怪隊友沒保護 要確耶 今天又沒有被故意保送 10/25 11:35
87F:推 mmmm963: Notani 10/25 11:35
88F:推 ghostl40809: 牛棚核爆打線也不夠追 10/25 11:35
89F:推 Turas: 學LBJ刷數據 10/25 11:35
90F:→ aa01081008tw: 投手群爆掉然後一直臭大谷..又不是大谷投球爆掉XD 10/25 11:36
91F:→ www115ui8: 最後一個打席不就被投開 跟ibb有87%像 10/25 11:37
92F:噓 paiyuchin: 笑死 直播畫面根本不是那個位置 還壓線咧 10/25 11:38
93F:推 befly10015: 滿壘沒有建功真的太傷了 10/25 11:40
94F:推 RoastCorn: 這次世界大賽不管誰贏都開心,道奇贏就大谷成功衛冕開 10/25 11:41
95F:→ RoastCorn: 心,藍鳥贏就小V葛拿冠軍也開心 10/25 11:41
96F:推 pirates223: 關鍵滿壘沒建功太傷了 但說真的一局掉9分到底怎麼追 10/25 11:41
97F:推 preattyall: 腿 10/25 11:42
98F:→ Axwell: 還直播畫面勒 笑死 10/25 11:42
99F:→ Axwell: 快點走出來啦 10/25 11:42
100F:推 a26893997: 笑死 被打爆了才在垃圾時間刷數據 10/25 11:43
101F:推 james7923: 垃圾時間無關緊要的一轟 10/25 11:44
102F:推 preattyall: 打錯,是推 10/25 11:45
103F:推 kkkandy: 有一次三振是主審亂搞的.... 10/25 11:46
104F:→ GordonJordan: 有K有HR有搞笑 OK的 10/25 11:48
105F:推 benboy: 加油 明天在一發吧 10/25 11:48
106F:推 jiaching: 有刷到全壘打 沒虧 10/25 11:48
107F:推 Beltran: 第二K被海兩球搞到 10/25 11:48
108F:推 preattyall: 有第二K的落點圖嗎 10/25 11:49
109F:推 Romulus: 有沒有想過直播畫面的框是不準的 10/25 11:50
110F:推 kenkenken31: 是真的很偏心,很多球那個銷皮度根本不是人類可以感受 10/25 11:50
111F:→ Romulus: 那主審判的和ABS一樣準你該給他掌聲啊 10/25 11:50
112F:→ kenkenken31: 是主審偏藍鳥差不多就給,才會把那些球撿起來 10/25 11:50
113F:→ kenkenken31: 我絕對支持電子好球帶,但這主審不是精準是選擇性放寬 10/25 11:51
114F:→ Romulus: 你正在自己打臉打的很凶你知道嗎 建議先去看電子怎麼判的 10/25 11:52
115F:→ Romulus: 雖然我覺得你根本不知道去哪裡查電子資料 10/25 11:52
117F:→ Romulus: 第二K Savant的圖 明顯看的到Fox的K-Zone太高了 10/25 11:56
118F:噓 glthe1: 垃圾時間刷數據 10/25 11:56
119F:→ Romulus: Savant的框應該是公開資料裡最接近ABS的那種 10/25 11:57
120F:→ Romulus: 然後一堆人拿歪掉的Fox框在那裡破口大罵 真的笑死 10/25 11:57
121F:推 supahotfire: 看來贏不了了 10/25 11:58
122F:推 lcw33242976: 慘 開轟也救不了牛棚大火 10/25 11:59
123F:推 RBC54321: 如果球離好球帶不遠 藍鳥自然有優勢 畢竟捕手較優 10/25 12:00
124F:→ ctes940008: 至少有刷到 10/25 12:01
125F:推 Romulus: 這場主審已經被Kirk影響很少了 削到毛的兩邊都會給 10/25 12:03
126F:→ Romulus: 比如Snell對Schneider第四球的曲球 10/25 12:04
127F:→ Romulus: 對Bichette第四球的速球之類 10/25 12:04
128F:推 Romulus: ABS挑戰上路後先被看破手腳的不是主審而是轉播KZ不要不信 10/25 12:06
129F:推 s29961091: 被主審搞 10/25 12:14
130F:推 Timmy21: 谷迷開始表演怪隊友嫌隊友等級不夠了 怎覺得似曾相似XD 10/25 12:20
131F:推 DDhow: 笑死 垃圾時間刷數據 10/25 12:21
132F:推 yangmin1028: 一堆雲仔不懂棒球裝懂 你前面滿壘有開轟擊沉 後面高 10/25 12:23
133F:→ yangmin1028: 機率就沒有藍鳥單局9分 10/25 12:23
134F:→ yangmin1028: 調度跟氣勢全部都不一樣 10/25 12:23
135F:推 ke265379ke: 無關緊要 10/25 12:26
136F:→ fit: 這邊也在流行如媽蛋爸嗎? 你先尻全壘打,人家後面就打不出來XD 10/25 12:37
137F:推 Cliffx: 垃圾時間刷數據 10/25 12:40
138F:→ fit: 這什麼狗屁道理?!以後藍鳥滿壘,是不是換代打都能尻滿貫砲?! 10/25 12:40
139F:推 ejonlj: 棒球本來就看氣勢的 你當每隊都中信樂天? 10/25 12:50
140F:→ ejonlj: 大骨那打席有做事 後面就是不可能長那樣 10/25 12:50
141F:→ ejonlj: 前面大家都在做事 就大谷躺 就是這場輸球的主因 10/25 12:52
142F:→ ejonlj: 還有那個蝦揮的怕黑死 10/25 12:53
143F:推 libralibra: 領先那麼多才有機會對上那鳥投開轟 10/25 12:54
144F:→ timidwei: the 刷 10/25 13:02
145F:推 sixsix666: 就說大谷是戰犯嘛 只要輸球怪他就對了 10/25 13:09
146F:噓 HinaTomo: 2025年了還在氣勢 難怪神棍到現在還能騙到人 笑死 10/25 13:34
147F:推 Yuko300: 明天加油來個三響 10/25 13:45
148F:推 nippleking: 看好道奇第二戰回魂 藍鳥迷哭哭 10/25 13:46
149F:→ luck945: 你圖片中的3振那顆跟轉播位置差好多誒,為啥阿 10/25 15:25
150F:→ luck945: 所以是fox的眶很歪是嗎? 10/25 15:26
151F:→ yangmin1028: 有人到了2025還是不懂領先後的調度跟心態都不一樣會 10/25 19:43
152F:→ yangmin1028: 影響戰局 特別是那個ID特別的..感覺就是活在自己世 10/25 19:43
153F:→ yangmin1028: 界的老人… 10/25 19:43
154F:推 justptt978: 滿壘那局要拿分 加油 10/25 23:26
155F:→ s1001326: 啦雞 10/26 00:44